Regional Weather Roundup
Issued by NWS

Home | Current Version | Previous Version | Graphics & Text | Print | Product List | Glossary On
Versions: 1 2 3 4 5 6 7 8 9 10 11 12 13 14 15 16 17 18 19 20 21 22 23 24 25 26 27 28 29 30 31 32 33 34 35 36 37 38 39 40 41 42 43 44 45 46 47 48 49 50
194
ASUS45 KPSR 300610
RWRAZ

ARIZONA HOURLY REGIONAL WEATHER ROUNDUP
NATIONAL WEATHER SERVICE PHOENIX AZ
1100 PM MST FRI JUL 29 2016

NOTE: FAIR INDICATES FEW OR NO CLOUDS BELOW 12,000 FEET WITH NO
SIGNIFICANT WEATHER AND/OR OBSTRUCTIONS TO VISIBILITY.

AZZ001>003-036-300700-
NORTHWEST ARIZONA

CITY           SKY/WX    TMP DP  RH WIND       PRES   REMARKS
BULLHEAD CITY  CLOUDY   104  55  20 SW3       29.63F HX 103
KINGMAN        MOCLDY    94  53  25 S6        29.91S
6HR MIN TEMP:  93; 6HR MAX TEMP: 103;

$$

AZZ004>008-015-016-018-300700-
NORTH CENTRAL ARIZONA

CITY           SKY/WX    TMP DP  RH WIND       PRES   REMARKS
GRAND CANYON   MOCLDY    64  53  67 CALM      30.21F
6HR MIN TEMP:  63; 6HR MAX TEMP:  81;

WILLIAMS       MOCLDY    66  48  52 S3        30.32R
PRESCOTT       CLOUDY    76  53  44 SE13G21   30.11R
6HR MIN TEMP:  73; 6HR MAX TEMP:  97; 6HR PCP:  0.02;

FLAGSTAFF      MOCLDY    62  48  60 SW6       30.26S
6HR MIN TEMP:  62; 6HR MAX TEMP:  74;

PAYSON         CLOUDY    70  55  60 E7        30.18S
PAGE           CLOUDY    89  43  20 NW6       29.96S
6HR MIN TEMP:  89; 6HR MAX TEMP:  97;

$$

AZZ009>014-017-300700-
NORTHEAST ARIZONA

CITY           SKY/WX    TMP DP  RH WIND       PRES   REMARKS
WINSLOW        CLOUDY    78  48  34 SW13      30.06F
6HR MIN TEMP:  78; 6HR MAX TEMP: 100; 6HR PCP: TRACE;

SAINT JOHNS    CLOUDY    68  48  48 E3        30.15F
6HR MIN TEMP:  68; 6HR MAX TEMP:  76;

WINDOW ROCK    MOCLDY    66  49  54 CALM      30.25S
6HR MIN TEMP:  66; 6HR MAX TEMP:  89;

SHOW LOW       CLOUDY    64  50  59 S10       30.23F
$$

AZZ023-300700-
GREATER PHOENIX AREA

CITY           SKY/WX    TMP DP  RH WIND       PRES   REMARKS
PHOENIX        LGT RAIN  83  64  52 S22G32    29.86F
6HR MIN TEMP:  77; 6HR MAX TEMP: 111; 6HR PCP:  0.53;

LUKE AFB       TSTM      86  63  45 NW2       29.90F
                                      6HR PCP: TRACE;

DEER VALLEY    CLOUDY    81  64  56 SE5       29.93R
6HR MIN TEMP:  81; 6HR MAX TEMP: 110; 6HR PCP: TRACE;

SCOTTSDALE     CLOUDY    79  68  69 E6        29.95R
6HR MIN TEMP:  79; 6HR MAX TEMP: 110; 6HR PCP:  0.15;

MESA-GATEWAY   CLOUDY    79  70  73 S16       29.91F
$$

AZZ027-028-300700-
SOUTHWEST MARICOPA COUNTY AND PINAL COUNTY

CITY           SKY/WX    TMP DP  RH WIND       PRES   REMARKS
CASA GRANDE    CLOUDY    79  68  69 SW10      29.95F
6HR MIN TEMP:  75; 6HR MAX TEMP: 109; 6HR PCP:  0.11;

GILA BEND      TSTM      79  68  69 SE15      29.87F
6HR MIN TEMP:  72; 6HR MAX TEMP: 111; 6HR PCP:  1.12;

$$

AZZ503-504-507>509-300700-
SOUTHEAST ARIZONA

CITY           SKY/WX    TMP DP  RH WIND       PRES   REMARKS
TUCSON         LGT RAIN  76  68  76 W6        29.99F
6HR MIN TEMP:  75; 6HR MAX TEMP: 106; 6HR PCP:  0.85;

DAVIS-MONTHAN  DRIZZLE   75  68  78 NW3       29.98F
6HR MIN TEMP:  73; 6HR MAX TEMP: 103; 6HR PCP:  0.35;

NOGALES        CLOUDY    74  60  61 NE3       30.04F
6HR MIN TEMP:  71; 6HR MAX TEMP:  80; 6HR PCP:  0.01;

SIERRA VISTA   CLOUDY    73  59  60 SW8       30.11F
6HR MIN TEMP:  72; 6HR MAX TEMP:  82;

DOUGLAS        CLOUDY    75  55  49 N13       30.02F
6HR MIN TEMP:  75; 6HR MAX TEMP:  93;

SAFFORD        CLOUDY    82  56  40 N9        29.94F
6HR MIN TEMP:  82; 6HR MAX TEMP:  88;

$$

AZZ020-021-025-026-031-300700-
SOUTHWEST ARIZONA

CITY           SKY/WX    TMP DP  RH WIND       PRES   REMARKS
YUMA           PTCLDY    90  70  51 S16       29.70R
6HR MIN TEMP:  90; 6HR MAX TEMP: 107;

$$

CAZ031-033-041-043-047-048-061-300700-
SOUTHERN CALIFORNIA

CITY           SKY/WX    TMP DP  RH WIND       PRES   REMARKS
DOWNTOWN L.A.  CLEAR     71  62  73 CALM      29.82R
6HR MIN TEMP:  71; 6HR MAX TEMP:  82;

L.A. AIRPORT   CLEAR     71  62  73 W5        29.83R
6HR MIN TEMP:  70; 6HR MAX TEMP:  76;

SAN DIEGO      PTCLDY    68  63  84 SW5       29.84F
6HR MIN TEMP:  68; 6HR MAX TEMP:  72;

BURBANK        CLEAR     77  56  48 SE7       29.83R
6HR MIN TEMP:  75; 6HR MAX TEMP:  92;

ONTARIO        PTCLDY    77  60  55 W8        29.84S
6HR MIN TEMP:  77; 6HR MAX TEMP:  97;

RIVERSIDE      CLEAR     78  60  53 W5        29.84R
6HR MIN TEMP:  78; 6HR MAX TEMP:  95;

PALM SPRINGS   CLEAR    100  61  27 N5        29.72R HX 101
6HR MIN TEMP: 100; 6HR MAX TEMP: 110;

EL CENTRO NAS  CLEAR     92  71  50 SE14      29.65F
6HR MIN TEMP:  92; 6HR MAX TEMP: 111;

IMPERIAL       CLEAR     94  73  50 SE14      29.64S HX 103
6HR MIN TEMP:  94; 6HR MAX TEMP: 112;

BLYTHE         PTCLDY    97  67  37 S13       29.67S HX 101
6HR MIN TEMP:  97; 6HR MAX TEMP: 114;

NEEDLES        CLOUDY   107  61  22 SW14      29.65F HX 109
6HR MIN TEMP: 107; 6HR MAX TEMP: 115;

$$

NVZ020-UTZ003-300700-
SOUTHERN NEVADA-UTAH

CITY           SKY/WX    TMP DP  RH WIND       PRES   REMARKS
LAS VEGAS      CLOUDY    98  47  17 N12       29.78R
6HR MIN TEMP:  98; 6HR MAX TEMP: 112;

SALT LAKE CITY PTCLDY    82  39  21 S7        29.93F
6HR MIN TEMP:  81; 6HR MAX TEMP: 101;

$$

NMZ009-TXZ055-300700-
NEW MEXICO-WEST TEXAS

CITY           SKY/WX    TMP DP  RH WIND       PRES   REMARKS
ALBUQUERQUE    LGT RAIN  72  55  55 N5        30.17S
6HR MIN TEMP:  65; 6HR MAX TEMP:  75; 6HR PCP:  0.45;

EL PASO        PTCLDY    81  59  47 S6        30.04S
6HR MIN TEMP:  81; 6HR MAX TEMP:  96;

$$


........................KEY........................
SKY/WX - SKY CONDITION/WEATHER
TMP    - TEMPERATURE IN FAHRENHEIT
DP     - DEW POINT IN FAHRENHEIT
RH     - RELATIVE HUMIDITY IN PERCENT
WIND   - DIRECTION AND SPEED IN MILES PER HOUR (MPH)
VRB    - VARIABLE WIND DIRECTION
PRES   - MEAN SEA LEVEL PRESSURE IN INCHES OF MERCURY
         F - FALLING PRESSURE   R - RISING PRESSURE
         S - STEADY PRESSURE
VSB    - VISIBILITY IN MILES
HX     - HEAT INDEX IN FAHRENHEIT
WCI    - WIND CHILL INDEX IN FAHRENHEIT
TC     - TEMPERATURE IN CELSIUS WHICH IS ALSO KNOWN AS
         TEMPERATURE IN CENTIGRADE
AFB    - AIR FORCE BASE
         LUKE AFB IS LUKE AIR FORCE BASE
         DAVIS-MONTHAN IS DAVIS-MONTHAN AIR FORCE BASE
NAS    - NAVAL AIR STATION
         EL CENTRO NAS IS EL CENTRO NAVAL AIR STATION
N/A    - NOT AVAILABLE





USA.gov is the U.S. government's official web portal to all federal, state and local government web resources and services.